| |
Missouri Department of Transportation

Social Media Facebook Twitter Flickr Blog YouTube RSS

Current METAR Information for All MoDOT Locations 
AWOS Home - General Info for all Airports
Current AWOS for all Airports - Current METAR for all Airports
Glossary - Disclaimer - Other Links


Automated Weather Observation System
Date: 09-22-2014
 
Location Current METAR Record
HANNIBAL METAR KHAE 230200Z AUTO 00000KT 10SM CLR 13/08 A3027 RMK AO2 PWINO
HARRISONVILLE  No current data available
LEBANON METAR KLBO 230205Z AUTO 03003KT 10SM CLR 14/09 A3026 RMK AO2
MALDEN  No current data available
MARSHALL METAR KMHL 230226Z AUTO 11004KT 10SM CLR 18/11 A3025 RMK AO2
MARYVILLE  No current data available
MEXICO  No current data available
MOBERLY  No current data available
NEVADA METAR KNVD 230235Z AUTO 10003KT 10SM CLR 14/12 A3024 RMK AO2
PIEDMONT  No current data available
SIKESTON  No current data available
SULLIVAN METAR KUUV 230215Z AUTO 00000KT 10SM CLR 12/09 A3029 RMK AO2
WARSAW  No current data available
About Us
How Do I...
Contact Us
Missouri Department of Transportation
Central Office
105 W. Capitol Avenue
Jefferson City, MO 65102
1-888-ASK-MODOT (275-6636)
1-866-831-6277 (Motor Carrier Services)
Drivers License Offices
horz_bar
| | |
Missouri State Government
© 2013 Missouri Department of Transportation. All Rights Reserved.   Privacy Policy.
 
 
 
 
RSS FeedYoutubeBlogFlickrTwitter Facebook